When you browse on this site, cookies collect data to enhance your experience and personalize the content and advertising you see.
Visit our Privacy Policy to learn more. By continuing to use the site, you agree to this use of cookies and data.
  • In Sweden
  • List of Countries
  • For 7 days
  • Water Temperature
  • Weather Map
  • Weather Widgets
  • user-avatar
    Login

    Hourly Weather Colesville

    Today, 22 August, Thursday

    Time Temperature Precipitation Wind Pressure Humidity
    00:00 +27°C° 0 mm 1 mps 748 mmHg 73%
    01:00 +26°C° 0 mm 1 mps 748 mmHg 74%
    02:00 +26°C° 0 mm 2 mps 749 mmHg 75%
    03:00 +26°C° 0 mm 2 mps 749 mmHg 76%
    04:00 +25°C° 0 mm 2 mps 749 mmHg 77%
    05:00 +26°C° 0 mm 3 mps 749 mmHg 77%
    06:00 +26°C° 0 mm 3 mps 749 mmHg 76%
    07:00 +26°C° 0 mm 3 mps 750 mmHg 76%
    08:00 +27°C° 0 mm 3 mps 750 mmHg 71%
    09:00 +29°C° 0 mm 3 mps 750 mmHg 66%
    10:00 +30°C° 0 mm 2 mps 750 mmHg 61%
    11:00 +31°C° 0 mm 2 mps 750 mmHg 56%
    12:00 +34°C° 0 mm 2 mps 749 mmHg 51%
    13:00 +35°C° 0 mm 2 mps 749 mmHg 46%
    14:00 +35°C° 0 mm 2 mps 749 mmHg 46%
    15:00 +35°C° 0 mm 2 mps 748 mmHg 45%
    16:00 +36°C° 0 mm 2 mps 747 mmHg 45%
    17:00 +34°C° 0.4 mm 3 mps 747 mmHg 51%
    18:00 +32°C° 0.4 mm 4 mps 747 mmHg 58%
    19:00 +30°C° 0.4 mm 5 mps 747 mmHg 64%
    20:00 +29°C° 1.4 mm 4 mps 748 mmHg 68%
    21:00 +28°C° 1.4 mm 3 mps 748 mmHg 72%
    22:00 +27°C° 1.4 mm 2 mps 749 mmHg 76%
    23:00 +26°C° 0 mm 2 mps 749 mmHg 77%

    Tomorrow, 23 August, Friday

    Time Temperature Precipitation Wind Pressure Humidity
    00:00 +26°C° 0 mm 3 mps 749 mmHg 78%
    01:00 +26°C° 0 mm 3 mps 749 mmHg 80%
    02:00 +25°C° 0 mm 3 mps 749 mmHg 80%
    03:00 +24°C° 0 mm 3 mps 749 mmHg 80%
    04:00 +22°C° 0 mm 4 mps 749 mmHg 80%
    05:00 +22°C° 0 mm 3 mps 750 mmHg 78%
    06:00 +21°C° 0 mm 3 mps 751 mmHg 77%
    07:00 +21°C° 0 mm 2 mps 752 mmHg 76%
    08:00 +20°C° 0.2 mm 2 mps 752 mmHg 76%
    09:00 +20°C° 0.2 mm 2 mps 752 mmHg 76%
    10:00 +20°C° 0.2 mm 2 mps 752 mmHg 76%
    11:00 +21°C° 0.4 mm 2 mps 752 mmHg 71%
    12:00 +23°C° 0.4 mm 2 mps 752 mmHg 67%
    13:00 +25°C° 0.4 mm 1 mps 752 mmHg 62%
    14:00 +25°C° 0 mm 1 mps 752 mmHg 62%
    15:00 +25°C° 0 mm 2 mps 752 mmHg 61%
    16:00 +25°C° 0 mm 2 mps 751 mmHg 61%
    17:00 +25°C° 0 mm 2 mps 752 mmHg 63%
    18:00 +24°C° 0 mm 1 mps 752 mmHg 64%
    19:00 +23°C° 0 mm 1 mps 752 mmHg 66%
    20:00 +23°C° 0 mm 1 mps 752 mmHg 67%
    21:00 +22°C° 0 mm 1 mps 752 mmHg 68%
    22:00 +22°C° 0 mm 1 mps 752 mmHg 70%
    23:00 +21°C° 0 mm 1 mps 753 mmHg 69%

    Day after tomorrow, 24 August, Saturday

    Time Temperature Precipitation Wind Pressure Humidity
    00:00 +20°C° 0 mm 2 mps 753 mmHg 68%
    01:00 +20°C° 0 mm 2 mps 753 mmHg 68%
    02:00 +19°C° 0 mm 2 mps 753 mmHg 68%
    03:00 +19°C° 0 mm 2 mps 753 mmHg 69%
    04:00 +18°C° 0 mm 2 mps 753 mmHg 69%
    05:00 +18°C° 0 mm 2 mps 753 mmHg 68%
    06:00 +19°C° 0 mm 3 mps 754 mmHg 67%
    07:00 +19°C° 0 mm 3 mps 754 mmHg 65%
    08:00 +20°C° 0 mm 3 mps 754 mmHg 60%
    09:00 +22°C° 0 mm 3 mps 755 mmHg 56%
    10:00 +25°C° 0 mm 3 mps 755 mmHg 51%
    11:00 +26°C° 0 mm 3 mps 755 mmHg 48%
    12:00 +27°C° 0 mm 3 mps 754 mmHg 46%
    13:00 +27°C° 0 mm 3 mps 754 mmHg 43%
    14:00 +27°C° 0 mm 3 mps 754 mmHg 45%
    15:00 +27°C° 0 mm 3 mps 754 mmHg 46%
    16:00 +27°C° 0 mm 3 mps 754 mmHg 47%
    17:00 +26°C° 0 mm 3 mps 754 mmHg 51%
    18:00 +24°C° 0 mm 2 mps 754 mmHg 55%
    19:00 +23°C° 0 mm 2 mps 754 mmHg 59%
    20:00 +23°C° 0 mm 2 mps 755 mmHg 60%
    21:00 +22°C° 0 mm 1 mps 755 mmHg 61%
    22:00 +22°C° 0 mm 1 mps 755 mmHg 63%
    23:00 +21°C° 0 mm 1 mps 755 mmHg 64%

    25 August, Sunday

    Time Temperature Precipitation Wind Pressure Humidity
    00:00 +21°C° 0 mm 1 mps 755 mmHg 66%
    01:00 +20°C° 0 mm 1 mps 755 mmHg 67%
    02:00 +20°C° 0 mm 1 mps 755 mmHg 67%
    03:00 +20°C° 0 mm 1 mps 755 mmHg 67%
    04:00 +19°C° 0 mm 1 mps 755 mmHg 67%
    05:00 +20°C° 0 mm 1 mps 756 mmHg 68%
    06:00 +19°C° 0 mm 2 mps 756 mmHg 68%
    07:00 +20°C° 0 mm 2 mps 756 mmHg 69%
    08:00 +21°C° 0 mm 2 mps 756 mmHg 63%
    09:00 +24°C° 0 mm 3 mps 756 mmHg 57%
    10:00 +26°C° 0 mm 3 mps 757 mmHg 51%
    11:00 +26°C° 0 mm 4 mps 756 mmHg 49%
    12:00 +27°C° 0 mm 4 mps 756 mmHg 47%
    13:00 +28°C° 0 mm 4 mps 756 mmHg 46%
    14:00 +27°C° 0 mm 4 mps 756 mmHg 49%
    15:00 +27°C° 0 mm 4 mps 756 mmHg 51%
    16:00 +27°C° 0 mm 4 mps 755 mmHg 54%
    17:00 +25°C° 0 mm 4 mps 755 mmHg 59%
    18:00 +24°C° 0 mm 3 mps 755 mmHg 64%
    19:00 +22°C° 0 mm 3 mps 755 mmHg 69%
    20:00 +21°C° 0 mm 3 mps 756 mmHg 71%
    21:00 +21°C° 0 mm 3 mps 756 mmHg 73%
    22:00 +20°C° 0 mm 3 mps 757 mmHg 75%
    23:00 +20°C° 0 mm 2 mps 756 mmHg 76%

    26 August, Monday

    Time Temperature Precipitation Wind Pressure Humidity
    00:00 +20°C° 0 mm 2 mps 756 mmHg 77%
    01:00 +19°C° 0 mm 2 mps 756 mmHg 79%
    02:00 +19°C° 0 mm 2 mps 756 mmHg 81%
    03:00 +19°C° 0 mm 2 mps 756 mmHg 83%
    04:00 +19°C° 0 mm 3 mps 756 mmHg 85%
    05:00 +19°C° 0.1 mm 3 mps 756 mmHg 84%
    06:00 +20°C° 0.1 mm 3 mps 756 mmHg 83%
    07:00 +20°C° 0.1 mm 4 mps 756 mmHg 81%
    08:00 +21°C° 0 mm 4 mps 756 mmHg 76%
    09:00 +22°C° 0 mm 4 mps 757 mmHg 70%
    10:00 +23°C° 0 mm 4 mps 757 mmHg 65%
    11:00 +25°C° 0 mm 4 mps 756 mmHg 62%
    12:00 +26°C° 0 mm 4 mps 756 mmHg 60%
    13:00 +27°C° 0 mm 4 mps 756 mmHg 57%
    14:00 +27°C° 0.1 mm 4 mps 755 mmHg 58%
    15:00 +27°C° 0.1 mm 4 mps 755 mmHg 59%
    16:00 +27°C° 0.1 mm 4 mps 755 mmHg 59%
    17:00 +26°C° 0 mm 4 mps 755 mmHg 65%
    18:00 +25°C° 0 mm 3 mps 755 mmHg 70%
    19:00 +24°C° 0 mm 3 mps 755 mmHg 75%
    20:00 +22°C° 0 mm 3 mps 755 mmHg 77%
    21:00 +22°C° 0 mm 3 mps 755 mmHg 79%
    22:00 +21°C° 0 mm 3 mps 755 mmHg 82%
    23:00 +21°C° 0 mm 3 mps 755 mmHg 83%

    27 August, Tuesday

    Time Temperature Precipitation Wind Pressure Humidity
    00:00 +21°C° 0 mm 2 mps 754 mmHg 84%
    01:00 +20°C° 0 mm 2 mps 754 mmHg 85%
    02:00 +20°C° 0 mm 2 mps 754 mmHg 86%
    03:00 +20°C° 0 mm 2 mps 754 mmHg 87%
    04:00 +21°C° 0 mm 1 mps 754 mmHg 88%
    05:00 +22°C° 0 mm 1 mps 754 mmHg 88%
    06:00 +22°C° 0 mm 1 mps 754 mmHg 87%
    07:00 +23°C° 0 mm 2 mps 754 mmHg 86%
    08:00 +24°C° 0 mm 2 mps 754 mmHg 79%
    09:00 +26°C° 0 mm 2 mps 754 mmHg 71%
    10:00 +27°C° 0 mm 2 mps 754 mmHg 63%
    11:00 +28°C° 0 mm 2 mps 754 mmHg 61%
    12:00 +28°C° 0 mm 3 mps 753 mmHg 59%
    13:00 +29°C° 0 mm 3 mps 753 mmHg 57%
    14:00 +29°C° 0 mm 3 mps 753 mmHg 59%
    15:00 +29°C° 0 mm 3 mps 752 mmHg 60%
    16:00 +29°C° 0 mm 2 mps 752 mmHg 61%
    17:00 +28°C° 0 mm 3 mps 752 mmHg 63%
    18:00 +27°C° 0 mm 3 mps 751 mmHg 66%
    19:00 +26°C° 0 mm 3 mps 751 mmHg 68%
    20:00 +26°C° 0 mm 3 mps 751 mmHg 72%
    21:00 +25°C° 0 mm 3 mps 752 mmHg 75%
    22:00 +25°C° 0 mm 3 mps 752 mmHg 79%
    23:00 +25°C° 0 mm 3 mps 751 mmHg 81%
    Show more